[[{"header":{"parameterUnit":"m.s-1","parameterCategory":1,"la1":30.2991,"la2":30.254,"lo1":-89.0895,"lo2":-89.0444,"dy":0.0017,"dx":0.0017,"nx":28,"ny":28,"refTime":"2024-03-06T09:00:00:Z","depth":0,"parameterNumber":2,"parameterNumberName":"U-component_of_WINDS"},"data":[0,0,0,0,0,0,0,0,0,0,0,0,0,0,0,0,0,0,0,0,0,0,0,0,0,0,0,0,0,0,0,0,0,0,0,0,0,0,0,0,0,0,0,0,0,0,0,0,0,0,0,0,0,0,0,0,0,0,0.0471,0.0472,0,0.052,0.052,0.0521,0.0545,0.0545,0.0545,0.0545,0.0594,0.0595,0.0597,0,0,0,0,0,0,0,0,0,0,0,0,0,0.04,0.0401,0.0471,0.0472,0.0472,0.0519,0.052,0.0521,0.0545,0.0545,0.0545,0.0545,0.0594,0.0595,0.0597,0,0,0,0,0,0,0,0,0,0,0,0,0,0.0438,0.0401,0.0471,0.049,0.0492,0.0519,0.052,0.0521,0.0545,0.0545,0.0545,0.0545,0.0593,0.0595,0.0597,0.0609,0,0,0.0603,0.0604,0,0,0,0,0,0,0,0,0.0435,0.044,0.0487,0.0489,0.0491,0.0526,0.0513,0.055,0.0545,0.0525,0.0545,0.0545,0.0572,0.0575,0.0584,0.0611,0.0613,0.0603,0.0604,0.0605,0.0606,0,0,0,0,0,0,0,0.0433,0.0438,0.049,0.0487,0.049,0.0496,0.0502,0.052,0.0548,0.0527,0.0529,0.0534,0.0573,0.0582,0.0586,0.0614,0.0603,0.0605,0.0606,0.0607,0.0653,0.0653,0,0,0,0,0,0,0.0427,0.0436,0.0489,0.0492,0.0463,0.0498,0.0504,0.0515,0.0547,0.0552,0.0534,0.0535,0.0579,0.0583,0.0587,0.0604,0.0605,0.0607,0.0608,0.0653,0.0653,0.0653,0,0,0,0,0,0,0.0425,0.0431,0.0487,0.0464,0.0472,0.0499,0.0511,0.0516,0.0526,0.0553,0.0558,0.0539,0.0579,0.0585,0.0603,0.0606,0.0608,0.061,0.0653,0.0653,0.0653,0.0636,0,0,0,0,0,0,0.0423,0.0431,0.0435,0.0464,0.0473,0.0502,0.0512,0.0517,0.0529,0.0531,0.0559,0.0563,0.058,0.06,0.0605,0.0608,0.0611,0.0653,0.0653,0.0653,0.0636,0.0635,0.0634,0,0,0,0,0,0.0421,0.0428,0.0435,0.0442,0.0479,0.0502,0.0507,0.0526,0.0529,0.0534,0.0552,0.0562,0.0605,0.0602,0.0608,0.0612,0.0653,0.0653,0.0653,0.0637,0.0635,0.0634,0,0,0,0,0,0,0.0398,0.0432,0.0441,0.0458,0.0477,0.0506,0.0512,0.0524,0.0542,0.0543,0.0565,0.0571,0.0588,0.0602,0.0598,0.0625,0.063,0.0631,0.0615,0.0614,0.0614,0.061,0.0613,0,0,0,0,0,0.0395,0.0411,0.044,0.0452,0.0461,0.0485,0.0496,0.0509,0.0529,0.0537,0.0556,0.0576,0.0594,0.0605,0.0623,0.0639,0.0645,0.0644,0.0643,0.0642,0.0643,0.0653,0.0653,0.0654,0.0654,0.0654,0,0,0.0389,0.041,0.0418,0.0448,0.0464,0.048,0.0492,0.0508,0.052,0.054,0.0559,0.0573,0.0597,0.0614,0.0623,0.0626,0.0644,0.0642,0.0641,0.0643,0.0653,0.0653,0.0653,0.0654,0.0654,0.0654,0,0,0.0386,0.0403,0.0416,0.0432,0.0457,0.0473,0.0476,0.0504,0.0514,0.0534,0.055,0.0564,0.0594,0.0611,0.0623,0.0627,0.0638,0.0632,0.0627,0.0637,0.0637,0.0637,0.0639,0.064,0.0633,0.0633,0.0633,0,0.0375,0.04,0.042,0.0436,0.0449,0.0468,0.0481,0.0496,0.0525,0.0534,0.0537,0.0576,0.0593,0.0615,0.0616,0.0625,0.063,0.0629,0.0636,0.0636,0.0636,0.0639,0.0639,0.0632,0.0632,0.0633,0.0633,0,0.0386,0.0403,0.041,0.0438,0.0452,0.0466,0.0489,0.05,0.0512,0.0528,0.0548,0.057,0.0593,0.0599,0.0611,0.0623,0.0624,0.0631,0.0637,0.0635,0.0638,0.0639,0.0631,0.0631,0.0632,0.0632,0,0,0.0369,0.041,0.0412,0.0425,0.0455,0.0468,0.0483,0.0506,0.0516,0.0536,0.0549,0.0575,0.0582,0.0596,0.061,0.0618,0.0621,0.0624,0.0625,0.0623,0.0637,0.0631,0.0632,0.0629,0.0629,0.0629,0.0635,0,0.0371,0.0399,0.0419,0.0439,0.0456,0.0475,0.0489,0.0508,0.0524,0.054,0.0557,0.0575,0.0582,0.0591,0.06,0.0619,0.0624,0.0619,0.0642,0.0643,0.0635,0.0633,0.0628,0.0632,0.0636,0.0636,0.0636,0,0.0376,0.0396,0.0418,0.0447,0.0454,0.0466,0.0489,0.0504,0.0527,0.0538,0.0554,0.0568,0.0586,0.059,0.0615,0.061,0.0621,0.0632,0.0632,0.0635,0.0639,0.0636,0.0634,0.0634,0.0638,0.0638,0.0638,0,0.0362,0.0394,0.0412,0.0423,0.0457,0.0465,0.0479,0.0502,0.0515,0.0535,0.0544,0.0565,0.0577,0.0594,0.0614,0.0615,0.0637,0.0643,0.0647,0.0646,0.065,0.065,0.0649,0.0657,0.0657,0.0657,0.0657,0,0.0361,0.0375,0.0407,0.0418,0.0433,0.0456,0.0471,0.0487,0.0507,0.0522,0.054,0.0553,0.0579,0.0596,0.0612,0.063,0.0635,0.0645,0.0649,0.0643,0.0642,0.065,0.0651,0.0657,0.0657,0.0657,0.0657,0,0.0348,0.037,0.0391,0.0422,0.043,0.044,0.0466,0.0478,0.0495,0.0513,0.0519,0.0545,0.0566,0.0588,0.0616,0.0627,0.0645,0.065,0.0637,0.0639,0.0642,0.0642,0.0647,0.065,0.0655,0.0655,0.0655,0,0.0347,0.0357,0.0389,0.0401,0.0415,0.0433,0.0446,0.0469,0.0482,0.051,0.0518,0.0541,0.0559,0.0592,0.0614,0.0635,0.0642,0.0642,0.0645,0.064,0.0642,0.0642,0.0643,0.0641,0.0641,0.0641,0.0641,0,0.0341,0.0352,0.0371,0.0393,0.0409,0.0428,0.0448,0.0456,0.0483,0.0497,0.0519,0.0534,0.0563,0.0585,0.0609,0.0625,0.0637,0.064,0.0642,0.0636,0.0628,0.0633,0.0635,0.064,0.064,0.064,0.064,0.064,0.0334,0.0345,0.0369,0.039,0.0407,0.0426,0.0438,0.0457,0.0476,0.0501,0.0514,0.0536,0.056,0.0594,0.0609,0.0627,0.063,0.0633,0.0634,0.0634,0.0633,0.0626,0.0631,0.0631,0.0631,0.0631,0.0631,0,0.033,0.0347,0.0366,0.0393,0.0409,0.0421,0.0443,0.0456,0.0475,0.0496,0.0515,0.054,0.0562,0.0586,0.0609,0.0619,0.0626,0.0624,0.0624,0.0627,0.0628,0.0624,0.0619,0.0619,0.0619,0.0619,0.0619,0.0619,0.033,0.0349,0.0362,0.0391,0.0408,0.0429,0.0441,0.0459,0.0476,0.0503,0.0522,0.0537,0.056,0.0585,0.0606,0.0613,0.062,0.0618,0.0626,0.0626,0.0627,0.0628,0.0624,0.0619,0.0619,0.0623,0.0623,0.0623]},{"header":{"parameterUnit":"m.s-1","parameterCategory":1,"la1":30.2991,"la2":30.254,"lo1":-89.0895,"lo2":-89.0444,"dy":0.0017,"dx":0.0017,"nx":28,"ny":28,"refTime":"2024-03-06T09:00:00:Z","depth":0,"parameterNumber":3,"parameterNumberName":"V-component_of_WINDS"},"data":[0,0,0,0,0,0,0,0,0,0,0,0,0,0,0,0,0,0,0,0,0,0,0,0,0,0,0,0,0,0,0,0,0,0,0,0,0,0,0,0,0,0,0,0,0,0,0,0,0,0,0,0,0,0,0,0,0,0,-2.8132,-2.8133,0,-2.8202,-2.8203,-2.8204,-2.8212,-2.8211,-2.821,-2.821,-2.828,-2.8282,-2.8285,0,0,0,0,0,0,0,0,0,0,0,0,0,-2.8003,-2.8006,-2.8132,-2.8133,-2.8134,-2.8202,-2.8203,-2.8204,-2.8212,-2.8211,-2.821,-2.8209,-2.8279,-2.8282,-2.8285,0,0,0,0,0,0,0,0,0,0,0,0,0,-2.8065,-2.8006,-2.8132,-2.8146,-2.8148,-2.8202,-2.8203,-2.8204,-2.8212,-2.8211,-2.821,-2.8209,-2.8278,-2.8282,-2.8286,-2.833,0,0,-2.8297,-2.8299,0,0,0,0,0,0,0,0,-2.8062,-2.807,-2.8143,-2.8145,-2.8147,-2.8197,-2.8184,-2.8247,-2.8212,-2.8187,-2.821,-2.8208,-2.8253,-2.8259,-2.8275,-2.8334,-2.8337,-2.8298,-2.83,-2.8302,-2.8303,0,0,0,0,0,0,0,-2.8057,-2.8067,-2.816,-2.8144,-2.8147,-2.8148,-2.8156,-2.8196,-2.8225,-2.819,-2.819,-2.8199,-2.8254,-2.8271,-2.8276,-2.8338,-2.8298,-2.8301,-2.8303,-2.8305,-2.8438,-2.844,0,0,0,0,0,0,-2.8051,-2.8063,-2.8158,-2.8162,-2.8101,-2.8152,-2.816,-2.8182,-2.8225,-2.8231,-2.8199,-2.8199,-2.8265,-2.8272,-2.8279,-2.8335,-2.8302,-2.8305,-2.8307,-2.8437,-2.8439,-2.844,0,0,0,0,0,0,-2.8048,-2.8059,-2.8155,-2.8113,-2.8125,-2.8155,-2.818,-2.8184,-2.8201,-2.8233,-2.8238,-2.8211,-2.8264,-2.8273,-2.8318,-2.8337,-2.8307,-2.831,-2.8436,-2.8438,-2.8439,-2.8446,0,0,0,0,0,0,-2.8044,-2.8058,-2.8075,-2.8113,-2.8127,-2.8193,-2.8181,-2.8186,-2.8208,-2.8207,-2.8245,-2.825,-2.8264,-2.8312,-2.8322,-2.8342,-2.8313,-2.8434,-2.8436,-2.8439,-2.8444,-2.8448,-2.8451,0,0,0,0,0,-2.8039,-2.8074,-2.8076,-2.8087,-2.815,-2.8194,-2.8202,-2.8218,-2.8209,-2.8227,-2.8247,-2.8249,-2.8334,-2.8317,-2.8327,-2.8349,-2.8433,-2.8436,-2.8438,-2.8443,-2.8447,-2.8451,0,0,0,0,0,0,-2.8036,-2.8079,-2.8082,-2.813,-2.8158,-2.8195,-2.8218,-2.8222,-2.8254,-2.8252,-2.827,-2.8279,-2.8323,-2.834,-2.8321,-2.8395,-2.8382,-2.8387,-2.8382,-2.8387,-2.839,-2.8385,-2.8316,0,0,0,0,0,-2.8041,-2.8074,-2.8109,-2.8148,-2.8162,-2.8188,-2.8208,-2.8218,-2.8248,-2.826,-2.8283,-2.8312,-2.8346,-2.8367,-2.8399,-2.8447,-2.8456,-2.8467,-2.8471,-2.8474,-2.8478,-2.8505,-2.8511,-2.8449,-2.8449,-2.8449,0,0,-2.8052,-2.8079,-2.8099,-2.8148,-2.8172,-2.8205,-2.8198,-2.8233,-2.8258,-2.8265,-2.8309,-2.8327,-2.8361,-2.8407,-2.8429,-2.8423,-2.8497,-2.8477,-2.8479,-2.8482,-2.8509,-2.8514,-2.852,-2.8451,-2.8451,-2.8451,0,0,-2.8088,-2.8112,-2.8147,-2.8171,-2.8207,-2.8224,-2.8232,-2.8269,-2.8282,-2.8326,-2.8332,-2.8362,-2.8419,-2.8443,-2.8462,-2.8509,-2.8512,-2.8519,-2.8537,-2.8563,-2.8568,-2.8573,-2.859,-2.8596,-2.8523,-2.8523,-2.8523,0,-2.8096,-2.8147,-2.8165,-2.82,-2.8222,-2.8231,-2.8267,-2.8289,-2.8333,-2.8348,-2.8342,-2.8414,-2.8437,-2.849,-2.8501,-2.8516,-2.8527,-2.8515,-2.8566,-2.8571,-2.8575,-2.8592,-2.8598,-2.8524,-2.8524,-2.8524,-2.8524,0,-2.8156,-2.8191,-2.8215,-2.8259,-2.8284,-2.8319,-2.8342,-2.8365,-2.8373,-2.8391,-2.8436,-2.8464,-2.8503,-2.8516,-2.8524,-2.8571,-2.8566,-2.8563,-2.855,-2.8582,-2.8597,-2.8604,-2.8525,-2.8525,-2.8524,-2.8524,0,0,-2.8191,-2.8245,-2.8254,-2.8274,-2.8315,-2.8342,-2.8378,-2.8417,-2.8436,-2.8467,-2.8498,-2.8546,-2.8544,-2.8566,-2.8577,-2.86,-2.8636,-2.8594,-2.8595,-2.8601,-2.869,-2.8692,-2.8699,-2.8639,-2.864,-2.8641,-2.8687,0,-2.8232,-2.8297,-2.8315,-2.837,-2.8403,-2.8413,-2.8444,-2.8473,-2.8491,-2.8521,-2.854,-2.8575,-2.8569,-2.8582,-2.8606,-2.8627,-2.8654,-2.8624,-2.8667,-2.8669,-2.8659,-2.8707,-2.871,-2.8752,-2.8693,-2.8694,-2.8695,0,-2.8288,-2.8321,-2.838,-2.8418,-2.8432,-2.846,-2.8498,-2.8527,-2.856,-2.8571,-2.8596,-2.8605,-2.8644,-2.863,-2.8683,-2.8662,-2.8681,-2.8694,-2.8696,-2.87,-2.8684,-2.8713,-2.8766,-2.8772,-2.8705,-2.8704,-2.8703,0,-2.8308,-2.8367,-2.8411,-2.8428,-2.8472,-2.8492,-2.8512,-2.8543,-2.8566,-2.8598,-2.8613,-2.865,-2.8669,-2.8697,-2.8716,-2.8704,-2.8768,-2.8755,-2.8778,-2.8778,-2.8791,-2.879,-2.8847,-2.8803,-2.8803,-2.8803,-2.8803,0,-2.8352,-2.8388,-2.842,-2.8447,-2.8487,-2.8507,-2.8547,-2.8567,-2.8595,-2.8626,-2.8636,-2.8664,-2.8687,-2.8719,-2.8734,-2.8776,-2.8784,-2.8795,-2.8798,-2.8794,-2.8793,-2.8806,-2.8804,-2.8804,-2.8804,-2.8804,-2.8803,0,-2.8381,-2.8404,-2.8452,-2.8491,-2.8502,-2.853,-2.8564,-2.859,-2.8608,-2.8647,-2.8657,-2.8686,-2.8724,-2.8746,-2.8793,-2.8803,-2.885,-2.8852,-2.8839,-2.8841,-2.8863,-2.8861,-2.8931,-2.8942,-2.889,-2.8891,-2.8891,0,-2.8408,-2.8436,-2.8478,-2.85,-2.852,-2.8555,-2.8578,-2.8599,-2.8623,-2.8663,-2.8684,-2.8723,-2.8755,-2.8815,-2.884,-2.8877,-2.888,-2.8902,-2.8885,-2.888,-2.888,-2.8879,-2.8882,-2.8905,-2.8905,-2.8905,-2.8906,0,-2.8452,-2.8463,-2.8496,-2.8534,-2.8562,-2.8593,-2.8623,-2.864,-2.8666,-2.8693,-2.8732,-2.8757,-2.8806,-2.8845,-2.8883,-2.8903,-2.8909,-2.8911,-2.8918,-2.8914,-2.8906,-2.8911,-2.8847,-2.8909,-2.8909,-2.8909,-2.8908,-2.8908,-2.8481,-2.8507,-2.8541,-2.8578,-2.8604,-2.8632,-2.8659,-2.8682,-2.8715,-2.8757,-2.8768,-2.8809,-2.8842,-2.8895,-2.8916,-2.8949,-2.8945,-2.8955,-2.8958,-2.8961,-2.8962,-2.8901,-2.8956,-2.8956,-2.8956,-2.8956,-2.8956,0,-2.8526,-2.8549,-2.8583,-2.8626,-2.8656,-2.866,-2.8694,-2.8719,-2.8755,-2.8786,-2.8818,-2.8863,-2.8901,-2.893,-2.8968,-2.8989,-2.8993,-2.8998,-2.8997,-2.9002,-2.8963,-2.8953,-2.8995,-2.8995,-2.8995,-2.8995,-2.8995,-2.8995,-2.8553,-2.8597,-2.8612,-2.8669,-2.8692,-2.8733,-2.8752,-2.8779,-2.8804,-2.8855,-2.8886,-2.8905,-2.8935,-2.8976,-2.9011,-2.9018,-2.9032,-2.9038,-2.9045,-2.9008,-2.9004,-2.9,-2.8991,-2.904,-2.9041,-2.9082,-2.9082,-2.9082]}]]